Regional Weather Roundup
Issued by NWS

Home | Current Version | Previous Version | Text Only | Print | Product List | Glossary On
Versions: 1 2 3 4 5 6 7 8 9 10 11 12 13 14 15 16 17 18 19 20 21 22 23 24 25 26 27 28 29 30 31 32 33 34 35 36 37 38 39 40 41 42 43 44 45 46 47 48 49 50
000
ASUS43 KIND 210609
RWRIN

WEATHER ROUNDUP FOR INDIANA
NATIONAL WEATHER SERVICE INDIANAPOLIS IN
200 AM EDT TUE OCT 21 2014

NOTE: "FAIR" INDICATES FEW OR NO CLOUDS BELOW 12,000 FEET WITH NO
SIGNIFICANT WEATHER AND/OR OBSTRUCTIONS TO VISIBILITY.

* - STATION DOES NOT REPORT WEATHER SUCH AS PRECIPITATION OR FOG.

+ - STATION NOT QUALITY CONTROLLED BY THE NATIONAL WEATHER SERVICE.
    USE DATA WITH CAUTION...ESPECIALLY DEWPOINT AND RELATIVE
    HUMIDITY OBSERVATIONS.

INZ001>003-010>013-019-020-210700-
NORTHWEST INDIANA

CITY           SKY/WX    TMP DP  RH WIND       PRES   REMARKS
GARY /AIRPORT/ CLOUDY    54  44  68 N14       30.00R
KNOX *+        CLOUDY    49  43  81 NW3       29.97R
LA PORTE +     CLOUDY    53  46  77 N9        29.98R
6HR MIN TEMP:  51; 6HR MAX TEMP:  55;

MICHIGAN CITY+ CLOUDY    52  41  66 N8G18     29.98S
MONTICELLO +   CLOUDY    47  46  97 CALM      29.97S
RENSSELAER +   CLOUDY    50  46  87 CALM      29.99S
VALPARAISO     LGT RAIN  51  44  77 NW5       29.98S
6HR MIN TEMP:  50; 6HR MAX TEMP:  53; 6HR PCP: TRACE;


$$

LMZ046-743>745-210700-
SOUTHERN LAKE MICHIGAN

STATION/POSITION TIME  TEMP WIND        PRES
                       AIR  DIR/SP/G
                 (UTC) (F)  (DEG/KT/KT) (MB)
MICHIGAN CITY    0600   53  340/ 22/ 25   N/A

$$

INZ004-005-014>016-021>024-210700-
NORTH CENTRAL INDIANA

CITY           SKY/WX    TMP DP  RH WIND       PRES   REMARKS
GOSHEN         MOCLDY    48  41  76 N9        29.95R
6HR MIN TEMP:  48; 6HR MAX TEMP:  54;

LOGANSPORT +   CLOUDY    50  45  81 NW6       29.97S
PERU/GRISSOM   CLOUDY    50  50 100 NW8       29.96S
6HR MIN TEMP:  50; 6HR MAX TEMP:  57; 6HR PCP: TRACE;

ROCHESTER +    CLOUDY    52  46  82 NW9       29.96S
SOUTH BEND     CLOUDY    49  45  86 N10       29.98R
6HR MIN TEMP:  50; 6HR MAX TEMP:  53; 6HR PCP: TRACE;

WARSAW +       CLOUDY    50  43  76 NW7       29.95R

$$

INZ006>009-017-018-025>027-210700-
NORTHEAST INDIANA

CITY           SKY/WX    TMP DP  RH WIND       PRES   REMARKS
ANGOLA *+      MOCLDY    46  43  87 NW7       29.92S
AUBURN +       CLEAR     46  41  81 NW8       29.93R
FORT WAYNE     MOCLDY    50  43  77 NW7       29.94R
6HR MIN TEMP:  50; 6HR MAX TEMP:  57;

HUNTINGTON +   CLOUDY    50  45  83 NW3       29.94S
6HR MIN TEMP:  50; 6HR MAX TEMP:  56;


$$

INZ028-029-035-036-043>045-051>053-210700-
WEST CENTRAL INDIANA

CITY           SKY/WX    TMP DP  RH WIND       PRES   REMARKS
GREENCASTLE +  MOCLDY    50  45  81 CALM      29.99R
LAFAYETTE      PTCLDY    47  45  93 NW5       29.98S
6HR MIN TEMP:  47; 6HR MAX TEMP:  60;

TERRE HAUTE    MOCLDY    49  44  83 NW3       29.99R
6HR MIN TEMP:  49; 6HR MAX TEMP:  63;


$$

INZ030>032-037>040-046>048-054>057-064-065-210700-
CENTRAL INDIANA

CITY           SKY/WX    TMP DP  RH WIND       PRES   REMARKS
CP ATTERBURY + PTCLDY    50  45  81 NW5       29.96S
FRANKFORT +    MOCLDY   N/A N/A N/A W5        29.99S FOG
INDIANAPOLIS   PTCLDY    48  44  86 NW7       29.97R
6HR MIN TEMP:  48; 6HR MAX TEMP:  59;

-EAGLE CREEK   MOCLDY    51  46  83 NW6       29.96R
6HR MIN TEMP:  51; 6HR MAX TEMP:  60;

KOKOMO *+      CLOUDY    50  45  81 NW8       29.96S
MARION +       CLOUDY    49  45  84 NW6       29.95S
MT COMFORT *+  CLEAR     48  46  93 NW6       29.96S
SHELBYVILLE    PTCLDY    51  45  79 NW6       29.95R
6HR MIN TEMP:  51; 6HR MAX TEMP:  61;

ZIONSVILLE +   CLOUDY    49  45  84 NW7       29.97S
6HR MIN TEMP:  49; 6HR MAX TEMP:  59;


$$

INZ033-034-041-042-049-050-058-059-210700-
EAST CENTRAL INDIANA

CITY           SKY/WX    TMP DP  RH WIND       PRES   REMARKS
MUNCIE         PTCLDY    48  45  89 NW7       29.94S
6HR MIN TEMP:  48; 6HR MAX TEMP:  57; 6HR PCP: TRACE;


$$

INZ060-061-067>069-081>083-085>088-210700-
SOUTHWEST INDIANA

CITY           SKY/WX    TMP DP  RH WIND       PRES   REMARKS
EVANSVILLE     CLEAR     55  44  66 NW5       29.99S
6HR MIN TEMP:  55; 6HR MAX TEMP:  66;

HUNTINGBURG *+ CLEAR     54  43  66 N6        29.99R
6HR MIN TEMP:  54; 6HR MAX TEMP:  61;

WASHINGTON +   CLEAR     52  45  75 NW5       29.97S
6HR MIN TEMP:  52; 6HR MAX TEMP:  61;


$$

INZ062-063-066-070>080-084-089>092-210700-
SOUTH CENTRAL AND SOUTHEAST INDIANA

CITY           SKY/WX    TMP DP  RH WIND       PRES   REMARKS
BLOOMINGTON    PTCLDY    48  45  89 N3        29.97R
6HR MIN TEMP:  46; 6HR MAX TEMP:  61;

SEYMOUR +      MOCLDY    48  45  87 CALM      29.96

$$



USA.gov is the U.S. government's official web portal to all federal, state and local government web resources and services.